Precipitable_Water
0.42 0.43 0.44 0.45 0.45 0.44 0.43 0.42 0.41 0.42 0.41 0.43 0.43 0.44 0.45 0.46 0.47 0.48 0.49 0.49 0.49 0.50 0.50 0.50 0.50 0.49 0.49 0.50 0.49 0.49 0.50 0.45 0.42 0.41 0.39 0.40 0.44 0.45 0.44 0.46 0.46 0.47 0.44 0.37 0.34 0.31 0.30 0.31 0.31 0.35 0.35 0.35 0.35 0.35 0.38 0.39 0.42 0.40 0.31 0.28 0.24 0.25 0.24 0.27 0.25 0.26 0.29 0.25 0.30 0.31 0.32 0.32 0.30 0.37 0.42 0.45 0.44 0.44 0.45 0.44 0.51 0.55 0.54 0.59 0.64 0.70 0.73 0.74
0.36 0.37 0.38 0.39 0.40 0.40 0.39 0.39 0.40 0.43 0.44 0.45 0.46 0.47 0.47 0.48 0.49 0.49 0.49 0.49 0.50 0.51 0.52 0.51 0.49 0.50 0.51 0.50 0.50 0.51 0.47 0.43 0.40 0.39 0.39 0.43 0.45 0.46 0.47 0.47 0.48 0.50 0.46 0.38 0.37 0.36 0.33 0.32 0.33 0.32 0.31 0.30 0.34 0.30 0.36 0.32 0.38 0.30 0.28 0.26 0.20 0.24 0.24 0.29 0.28 0.29 0.26 0.25 0.28 0.29 0.30 0.30 0.29 0.33 0.38 0.35 0.36 0.38 0.37 0.41 0.46 0.46 0.52 0.60 0.65 0.68 0.69 0.71
0.36 0.36 0.37 0.36 0.36 0.36 0.38 0.39 0.41 0.43 0.45 0.48 0.51 0.52 0.53 0.52 0.52 0.52 0.52 0.51 0.51 0.52 0.52 0.51 0.51 0.51 0.50 0.48 0.47 0.50 0.45 0.37 0.37 0.34 0.39 0.44 0.45 0.46 0.46 0.46 0.47 0.48 0.41 0.37 0.37 0.35 0.32 0.31 0.31 0.29 0.27 0.26 0.28 0.27 0.30 0.30 0.33 0.33 0.27 0.23 0.22 0.27 0.27 0.29 0.31 0.29 0.30 0.28 0.26 0.27 0.29 0.30 0.31 0.32 0.37 0.33 0.32 0.34 0.32 0.34 0.39 0.41 0.43 0.51 0.59 0.64 0.65 0.65
0.36 0.36 0.36 0.36 0.38 0.39 0.42 0.44 0.47 0.48 0.49 0.51 0.53 0.54 0.54 0.55 0.55 0.54 0.53 0.53 0.52 0.52 0.51 0.49 0.48 0.47 0.45 0.42 0.42 0.46 0.40 0.35 0.30 0.34 0.38 0.41 0.42 0.43 0.42 0.42 0.44 0.43 0.39 0.38 0.36 0.35 0.34 0.32 0.29 0.26 0.24 0.23 0.24 0.26 0.24 0.27 0.25 0.29 0.27 0.22 0.23 0.29 0.27 0.29 0.31 0.32 0.30 0.30 0.27 0.27 0.29 0.29 0.31 0.33 0.34 0.32 0.29 0.31 0.33 0.38 0.39 0.40 0.44 0.48 0.51 0.54 0.57 0.57
0.35 0.37 0.39 0.41 0.43 0.44 0.45 0.46 0.46 0.48 0.50 0.50 0.50 0.51 0.52 0.53 0.53 0.54 0.53 0.52 0.50 0.47 0.45 0.43 0.41 0.42 0.40 0.40 0.38 0.39 0.33 0.24 0.27 0.35 0.39 0.40 0.42 0.42 0.41 0.41 0.43 0.39 0.37 0.35 0.34 0.32 0.29 0.26 0.24 0.22 0.20 0.19 0.20 0.21 0.21 0.23 0.26 0.27 0.23 0.26 0.27 0.29 0.26 0.29 0.28 0.29 0.28 0.30 0.27 0.28 0.26 0.27 0.33 0.33 0.32 0.31 0.26 0.27 0.32 0.37 0.41 0.42 0.46 0.44 0.47 0.50 0.53 0.53
0.39 0.41 0.43 0.44 0.45 0.45 0.45 0.46 0.48 0.50 0.50 0.50 0.50 0.51 0.52 0.52 0.52 0.51 0.50 0.47 0.46 0.44 0.43 0.42 0.41 0.38 0.39 0.39 0.42 0.35 0.27 0.15 0.28 0.32 0.40 0.41 0.43 0.43 0.43 0.45 0.43 0.41 0.37 0.32 0.30 0.29 0.27 0.25 0.24 0.21 0.20 0.19 0.18 0.17 0.19 0.21 0.25 0.19 0.22 0.23 0.25 0.26 0.23 0.25 0.26 0.26 0.26 0.25 0.25 0.25 0.27 0.30 0.29 0.28 0.31 0.31 0.29 0.32 0.37 0.39 0.41 0.44 0.45 0.47 0.49 0.50 0.50 0.51
0.45 0.46 0.47 0.45 0.45 0.45 0.46 0.48 0.50 0.51 0.51 0.50 0.52 0.52 0.51 0.50 0.48 0.47 0.46 0.45 0.42 0.42 0.41 0.40 0.38 0.37 0.37 0.44 0.37 0.31 0.28 0.29 0.33 0.37 0.39 0.41 0.42 0.41 0.41 0.42 0.41 0.37 0.34 0.30 0.29 0.27 0.26 0.25 0.24 0.22 0.21 0.19 0.19 0.18 0.20 0.20 0.22 0.20 0.17 0.21 0.20 0.22 0.20 0.22 0.22 0.24 0.24 0.24 0.24 0.28 0.30 0.27 0.28 0.24 0.31 0.30 0.33 0.35 0.38 0.41 0.43 0.44 0.46 0.48 0.48 0.48 0.48 0.49
0.47 0.48 0.47 0.46 0.46 0.47 0.47 0.50 0.51 0.50 0.49 0.49 0.50 0.48 0.46 0.44 0.43 0.43 0.41 0.40 0.38 0.38 0.40 0.41 0.42 0.42 0.43 0.41 0.37 0.30 0.30 0.30 0.34 0.37 0.37 0.37 0.37 0.37 0.37 0.36 0.36 0.34 0.30 0.27 0.27 0.25 0.25 0.23 0.22 0.23 0.21 0.19 0.20 0.19 0.21 0.19 0.21 0.18 0.17 0.21 0.21 0.21 0.22 0.24 0.24 0.25 0.26 0.26 0.28 0.29 0.26 0.26 0.28 0.27 0.29 0.28 0.32 0.35 0.37 0.40 0.43 0.44 0.44 0.46 0.46 0.46 0.47 0.48
0.51 0.50 0.48 0.48 0.48 0.49 0.49 0.50 0.51 0.50 0.49 0.48 0.47 0.45 0.43 0.40 0.38 0.37 0.38 0.40 0.41 0.42 0.43 0.44 0.46 0.48 0.48 0.41 0.32 0.29 0.27 0.33 0.35 0.35 0.35 0.34 0.34 0.34 0.33 0.31 0.33 0.30 0.28 0.29 0.29 0.28 0.26 0.24 0.24 0.24 0.20 0.21 0.23 0.20 0.21 0.18 0.16 0.21 0.20 0.23 0.22 0.23 0.24 0.25 0.25 0.26 0.26 0.27 0.28 0.25 0.25 0.27 0.28 0.31 0.27 0.30 0.32 0.35 0.36 0.38 0.40 0.41 0.42 0.42 0.42 0.44 0.45 0.47
0.53 0.52 0.51 0.51 0.51 0.50 0.49 0.49 0.49 0.48 0.46 0.45 0.44 0.43 0.39 0.36 0.38 0.39 0.40 0.41 0.40 0.40 0.40 0.42 0.45 0.43 0.40 0.33 0.30 0.24 0.29 0.34 0.34 0.34 0.34 0.33 0.32 0.31 0.30 0.30 0.30 0.28 0.25 0.25 0.27 0.26 0.24 0.25 0.25 0.26 0.25 0.23 0.24 0.21 0.23 0.21 0.19 0.25 0.25 0.25 0.24 0.24 0.24 0.26 0.24 0.25 0.26 0.25 0.26 0.23 0.23 0.24 0.28 0.26 0.22 0.30 0.31 0.32 0.33 0.35 0.37 0.39 0.39 0.40 0.41 0.43 0.45 0.46
0.55 0.53 0.52 0.52 0.52 0.50 0.48 0.45 0.45 0.45 0.44 0.42 0.40 0.39 0.39 0.39 0.38 0.39 0.39 0.40 0.40 0.40 0.39 0.42 0.42 0.42 0.29 0.30 0.26 0.23 0.32 0.32 0.33 0.34 0.33 0.33 0.30 0.28 0.28 0.29 0.29 0.27 0.25 0.24 0.23 0.24 0.23 0.23 0.24 0.24 0.22 0.19 0.23 0.21 0.21 0.21 0.25 0.23 0.23 0.22 0.21 0.21 0.22 0.22 0.22 0.22 0.23 0.22 0.24 0.23 0.21 0.23 0.24 0.23 0.21 0.25 0.30 0.31 0.30 0.32 0.35 0.36 0.38 0.39 0.41 0.42 0.44 0.45
0.56 0.54 0.52 0.51 0.49 0.48 0.45 0.43 0.42 0.40 0.38 0.37 0.38 0.40 0.39 0.39 0.39 0.40 0.40 0.40 0.39 0.39 0.40 0.41 0.38 0.32 0.31 0.29 0.26 0.26 0.32 0.32 0.34 0.32 0.32 0.30 0.27 0.28 0.29 0.29 0.28 0.26 0.24 0.20 0.21 0.22 0.23 0.22 0.21 0.18 0.14 0.24 0.16 0.19 0.19 0.24 0.21 0.20 0.20 0.15 0.17 0.18 0.17 0.20 0.19 0.20 0.21 0.19 0.23 0.23 0.19 0.18 0.20 0.18 0.23 0.27 0.30 0.31 0.31 0.32 0.34 0.36 0.38 0.40 0.41 0.42 0.43 0.43
0.53 0.50 0.48 0.46 0.44 0.43 0.41 0.38 0.36 0.35 0.35 0.38 0.41 0.40 0.39 0.39 0.39 0.38 0.40 0.37 0.40 0.40 0.41 0.42 0.40 0.39 0.32 0.26 0.26 0.30 0.32 0.33 0.30 0.29 0.28 0.27 0.25 0.27 0.27 0.27 0.26 0.25 0.24 0.21 0.21 0.22 0.23 0.21 0.19 0.16 0.18 0.15 0.14 0.11 0.18 0.20 0.18 0.18 0.17 0.14 0.13 0.14 0.14 0.17 0.18 0.19 0.18 0.20 0.22 0.20 0.11 0.14 0.18 0.21 0.25 0.28 0.30 0.31 0.31 0.31 0.33 0.35 0.37 0.39 0.40 0.40 0.41 0.41
0.47 0.45 0.43 0.40 0.38 0.38 0.37 0.35 0.32 0.33 0.37 0.42 0.41 0.38 0.37 0.37 0.37 0.38 0.40 0.41 0.42 0.42 0.43 0.47 0.43 0.32 0.27 0.24 0.24 0.27 0.29 0.30 0.27 0.24 0.23 0.25 0.23 0.23 0.25 0.25 0.25 0.24 0.24 0.21 0.21 0.22 0.22 0.22 0.20 0.20 0.23 0.17 0.14 0.24 0.18 0.17 0.19 0.13 0.15 0.17 0.13 0.12 0.12 0.20 0.19 0.20 0.18 0.22 0.22 0.22 0.13 0.15 0.19 0.22 0.25 0.28 0.30 0.30 0.31 0.31 0.32 0.33 0.34 0.35 0.36 0.37 0.38 0.38
0.44 0.42 0.40 0.40 0.37 0.36 0.35 0.34 0.34 0.37 0.42 0.43 0.39 0.38 0.37 0.35 0.35 0.38 0.43 0.44 0.45 0.47 0.48 0.44 0.36 0.27 0.21 0.23 0.24 0.25 0.28 0.27 0.22 0.23 0.25 0.24 0.23 0.22 0.22 0.23 0.22 0.23 0.22 0.21 0.21 0.23 0.24 0.23 0.22 0.18 0.16 0.24 0.22 0.17 0.14 0.15 0.17 0.17 0.12 0.11 0.15 0.13 0.15 0.19 0.21 0.20 0.17 0.21 0.23 0.20 0.14 0.15 0.19 0.22 0.25 0.28 0.28 0.30 0.30 0.31 0.31 0.32 0.32 0.32 0.33 0.34 0.35 0.36
0.42 0.42 0.42 0.41 0.40 0.39 0.39 0.38 0.38 0.39 0.41 0.40 0.37 0.37 0.38 0.38 0.37 0.40 0.43 0.45 0.47 0.46 0.42 0.32 0.30 0.26 0.20 0.18 0.20 0.27 0.23 0.18 0.19 0.24 0.26 0.27 0.24 0.21 0.23 0.22 0.23 0.23 0.23 0.22 0.25 0.26 0.27 0.24 0.18 0.19 0.18 0.20 0.18 0.15 0.14 0.13 0.15 0.16 0.13 0.12 0.12 0.14 0.15 0.15 0.20 0.21 0.21 0.19 0.20 0.19 0.14 0.16 0.18 0.22 0.24 0.25 0.25 0.26 0.27 0.28 0.29 0.31 0.32 0.32 0.33 0.33 0.34 0.34
0.41 0.41 0.42 0.40 0.39 0.37 0.36 0.38 0.38 0.38 0.38 0.39 0.37 0.35 0.36 0.37 0.38 0.38 0.37 0.38 0.36 0.36 0.29 0.25 0.28 0.28 0.20 0.24 0.27 0.19 0.17 0.20 0.24 0.23 0.24 0.27 0.26 0.24 0.24 0.22 0.22 0.21 0.24 0.25 0.26 0.24 0.25 0.21 0.23 0.20 0.21 0.16 0.17 0.15 0.11 0.10 0.10 0.12 0.14 0.11 0.13 0.11 0.12 0.11 0.18 0.21 0.20 0.18 0.15 0.18 0.14 0.15 0.18 0.20 0.22 0.23 0.24 0.24 0.24 0.25 0.27 0.28 0.28 0.29 0.30 0.31 0.32 0.33
0.41 0.42 0.41 0.39 0.38 0.37 0.38 0.38 0.37 0.35 0.35 0.37 0.34 0.32 0.30 0.32 0.35 0.35 0.31 0.35 0.36 0.34 0.26 0.27 0.28 0.22 0.23 0.21 0.15 0.16 0.21 0.19 0.20 0.22 0.24 0.27 0.27 0.25 0.24 0.23 0.23 0.22 0.22 0.21 0.24 0.20 0.22 0.16 0.19 0.14 0.15 0.14 0.13 0.11 0.07 0.06 0.08 0.08 0.08 0.08 0.09 0.11 0.12 0.11 0.12 0.16 0.18 0.18 0.15 0.16 0.15 0.15 0.18 0.20 0.21 0.23 0.24 0.24 0.24 0.25 0.25 0.26 0.27 0.28 0.29 0.29 0.30 0.31
0.42 0.41 0.40 0.39 0.37 0.37 0.37 0.37 0.36 0.33 0.31 0.33 0.33 0.33 0.34 0.34 0.30 0.26 0.23 0.24 0.24 0.18 0.16 0.16 0.16 0.10 0.09 0.16 0.21 0.20 0.20 0.21 0.22 0.20 0.19 0.23 0.25 0.25 0.26 0.26 0.24 0.20 0.17 0.15 0.15 0.17 0.19 0.16 0.16 0.12 0.10 0.12 0.11 0.13 0.11 0.12 0.12 0.10 0.10 0.10 0.10 0.09 0.10 0.11 0.16 0.19 0.19 0.16 0.15 0.16 0.14 0.16 0.18 0.20 0.22 0.23 0.24 0.23 0.24 0.24 0.25 0.25 0.26 0.27 0.27 0.28 0.28 0.28
0.41 0.39 0.37 0.36 0.35 0.34 0.33 0.33 0.33 0.34 0.31 0.27 0.28 0.25 0.25 0.20 0.17 0.16 0.23 0.22 0.20 0.19 0.20 0.21 0.21 0.20 0.21 0.20 0.18 0.22 0.24 0.22 0.16 0.18 0.20 0.23 0.24 0.21 0.19 0.22 0.19 0.20 0.15 0.11 0.15 0.14 0.19 0.11 0.10 0.11 0.13 0.14 0.14 0.14 0.15 0.15 0.14 0.13 0.13 0.12 0.11 0.11 0.12 0.15 0.16 0.19 0.22 0.17 0.15 0.16 0.16 0.17 0.18 0.20 0.21 0.23 0.23 0.23 0.23 0.23 0.23 0.23 0.24 0.25 0.25 0.26 0.27 0.28
0.41 0.39 0.36 0.34 0.33 0.31 0.30 0.31 0.31 0.33 0.32 0.28 0.26 0.21 0.15 0.15 0.13 0.13 0.19 0.22 0.25 0.25 0.21 0.21 0.21 0.19 0.19 0.22 0.22 0.20 0.15 0.15 0.17 0.17 0.19 0.25 0.22 0.19 0.14 0.16 0.13 0.11 0.14 0.16 0.13 0.19 0.17 0.10 0.12 0.15 0.17 0.15 0.15 0.15 0.15 0.14 0.13 0.11 0.11 0.11 0.10 0.11 0.09 0.15 0.15 0.19 0.20 0.15 0.13 0.16 0.15 0.16 0.17 0.19 0.20 0.21 0.20 0.20 0.20 0.21 0.21 0.23 0.24 0.25 0.25 0.26 0.27 0.28
0.40 0.38 0.35 0.34 0.33 0.31 0.30 0.29 0.29 0.29 0.30 0.30 0.24 0.19 0.21 0.22 0.35 0.27 0.21 0.15 0.22 0.24 0.22 0.21 0.23 0.20 0.23 0.24 0.25 0.24 0.19 0.12 0.12 0.15 0.20 0.23 0.17 0.14 0.14 0.14 0.12 0.09 0.15 0.13 0.13 0.11 0.09 0.09 0.13 0.16 0.18 0.16 0.15 0.14 0.13 0.12 0.11 0.12 0.10 0.10 0.09 0.10 0.12 0.15 0.15 0.17 0.17 0.15 0.12 0.14 0.12 0.13 0.15 0.17 0.18 0.18 0.19 0.20 0.21 0.22 0.23 0.23 0.24 0.25 0.26 0.26 0.27 0.27
0.40 0.38 0.36 0.35 0.33 0.31 0.29 0.32 0.28 0.25 0.22 0.22 0.21 0.22 0.21 0.33 0.38 0.37 0.26 0.20 0.19 0.25 0.22 0.20 0.16 0.18 0.19 0.24 0.24 0.25 0.14 0.11 0.11 0.14 0.17 0.21 0.17 0.16 0.16 0.12 0.11 0.12 0.12 0.12 0.09 0.08 0.07 0.09 0.13 0.16 0.18 0.15 0.13 0.13 0.12 0.11 0.11 0.10 0.10 0.09 0.07 0.11 0.09 0.07 0.13 0.15 0.15 0.14 0.11 0.13 0.12 0.13 0.15 0.17 0.18 0.20 0.20 0.21 0.23 0.24 0.24 0.25 0.25 0.26 0.27 0.27 0.27 0.27
0.39 0.39 0.37 0.34 0.33 0.30 0.31 0.32 0.34 0.22 0.22 0.22 0.22 0.23 0.33 0.38 0.39 0.32 0.21 0.14 0.14 0.19 0.23 0.21 0.20 0.18 0.18 0.17 0.22 0.22 0.16 0.14 0.14 0.12 0.21 0.20 0.15 0.20 0.17 0.15 0.12 0.12 0.10 0.11 0.10 0.08 0.08 0.12 0.16 0.15 0.14 0.14 0.11 0.12 0.11 0.10 0.08 0.11 0.10 0.09 0.09 0.09 0.11 0.10 0.10 0.13 0.15 0.15 0.15 0.14 0.12 0.12 0.15 0.14 0.16 0.20 0.22 0.23 0.24 0.25 0.25 0.26 0.27 0.28 0.27 0.27 0.27 0.26
0.40 0.39 0.37 0.35 0.32 0.31 0.31 0.31 0.24 0.22 0.24 0.20 0.22 0.32 0.37 0.39 0.39 0.34 0.19 0.15 0.15 0.16 0.26 0.23 0.23 0.20 0.21 0.27 0.25 0.18 0.18 0.17 0.16 0.17 0.19 0.20 0.17 0.16 0.14 0.18 0.15 0.10 0.11 0.12 0.11 0.10 0.10 0.15 0.16 0.14 0.13 0.13 0.11 0.10 0.11 0.10 0.07 0.08 0.11 0.10 0.10 0.11 0.10 0.11 0.12 0.12 0.10 0.09 0.14 0.13 0.07 0.08 0.13 0.15 0.15 0.19 0.21 0.21 0.23 0.23 0.23 0.24 0.25 0.25 0.24 0.25 0.26 0.27
0.40 0.40 0.38 0.35 0.33 0.30 0.31 0.22 0.24 0.24 0.19 0.17 0.24 0.35 0.37 0.39 0.39 0.38 0.17 0.11 0.08 0.15 0.21 0.12 0.23 0.16 0.27 0.16 0.20 0.18 0.19 0.11 0.18 0.17 0.19 0.20 0.24 0.16 0.16 0.12 0.15 0.10 0.12 0.12 0.10 0.12 0.13 0.16 0.15 0.12 0.12 0.11 0.11 0.09 0.11 0.11 0.07 0.06 0.07 0.12 0.11 0.11 0.11 0.11 0.11 0.11 0.07 0.07 0.12 0.17 0.08 0.06 0.12 0.11 0.15 0.17 0.17 0.18 0.21 0.21 0.22 0.23 0.23 0.23 0.24 0.25 0.26 0.26
0.41 0.41 0.39 0.35 0.33 0.28 0.23 0.18 0.31 0.27 0.16 0.17 0.28 0.36 0.36 0.37 0.41 0.33 0.15 0.11 0.08 0.16 0.12 0.18 0.19 0.17 0.24 0.17 0.17 0.19 0.06 0.09 0.20 0.16 0.16 0.19 0.15 0.21 0.10 0.10 0.13 0.17 0.17 0.15 0.10 0.08 0.16 0.14 0.13 0.13 0.11 0.10 0.09 0.08 0.11 0.11 0.07 0.05 0.11 0.12 0.10 0.10 0.11 0.11 0.11 0.11 0.10 0.14 0.15 0.15 0.14 0.08 0.06 0.08 0.14 0.15 0.15 0.16 0.18 0.20 0.21 0.22 0.22 0.23 0.24 0.25 0.26 0.26
0.42 0.41 0.38 0.34 0.33 0.29 0.20 0.26 0.25 0.20 0.21 0.24 0.32 0.33 0.36 0.35 0.39 0.31 0.15 0.07 0.05 0.19 0.12 0.16 0.17 0.26 0.19 0.19 0.19 0.13 0.13 0.17 0.10 0.11 0.18 0.18 0.18 0.15 0.13 0.11 0.10 0.11 0.14 0.13 0.05 0.14 0.15 0.12 0.12 0.10 0.10 0.09 0.08 0.11 0.12 0.12 0.08 0.08 0.11 0.11 0.09 0.12 0.12 0.12 0.11 0.10 0.11 0.11 0.07 0.11 0.14 0.07 0.06 0.08 0.13 0.15 0.12 0.14 0.15 0.17 0.19 0.20 0.21 0.23 0.24 0.24 0.24 0.24
0.42 0.40 0.37 0.32 0.33 0.33 0.34 0.27 0.21 0.18 0.26 0.31 0.30 0.30 0.31 0.33 0.30 0.19 0.14 0.05 0.11 0.16 0.28 0.13 0.26 0.19 0.16 0.18 0.14 0.16 0.14 0.15 0.08 0.12 0.16 0.18 0.18 0.17 0.11 0.13 0.14 0.13 0.15 0.13 0.08 0.13 0.16 0.15 0.14 0.13 0.11 0.09 0.12 0.13 0.13 0.12 0.08 0.10 0.12 0.12 0.13 0.14 0.13 0.12 0.10 0.11 0.10 0.08 0.05 0.08 0.11 0.06 0.04 0.06 0.09 0.13 0.12 0.12 0.13 0.16 0.17 0.19 0.20 0.22 0.22 0.23 0.23 0.23
0.43 0.40 0.36 0.32 0.31 0.28 0.30 0.29 0.24 0.32 0.34 0.31 0.30 0.30 0.29 0.28 0.20 0.12 0.07 0.04 0.15 0.08 0.17 0.16 0.14 0.11 0.15 0.10 0.11 0.14 0.11 0.13 0.15 0.14 0.14 0.13 0.15 0.18 0.16 0.20 0.15 0.12 0.11 0.15 0.14 0.15 0.17 0.21 0.22 0.14 0.11 0.13 0.14 0.14 0.14 0.13 0.13 0.13 0.11 0.09 0.10 0.10 0.09 0.11 0.10 0.09 0.08 0.04 0.05 0.08 0.10 0.08 0.04 0.05 0.07 0.08 0.10 0.11 0.13 0.15 0.17 0.19 0.20 0.21 0.21 0.22 0.22 0.22
0.43 0.41 0.37 0.35 0.26 0.28 0.28 0.22 0.24 0.34 0.33 0.33 0.32 0.26 0.21 0.17 0.13 0.07 0.04 0.05 0.15 0.11 0.18 0.13 0.11 0.17 0.10 0.08 0.07 0.12 0.13 0.12 0.11 0.12 0.09 0.13 0.11 0.14 0.14 0.12 0.15 0.11 0.11 0.12 0.11 0.13 0.14 0.15 0.14 0.15 0.18 0.16 0.16 0.12 0.15 0.15 0.14 0.11 0.08 0.07 0.07 0.08 0.07 0.08 0.06 0.07 0.04 0.02 0.05 0.08 0.08 0.09 0.04 0.04 0.08 0.11 0.14 0.14 0.13 0.12 0.14 0.16 0.18 0.19 0.20 0.21 0.21 0.21
0.43 0.43 0.40 0.35 0.37 0.35 0.22 0.20 0.25 0.34 0.33 0.34 0.28 0.19 0.15 0.08 0.08 0.04 0.04 0.14 0.07 0.09 0.10 0.10 0.13 0.11 0.11 0.12 0.10 0.10 0.09 0.12 0.13 0.11 0.09 0.10 0.09 0.08 0.10 0.07 0.09 0.05 0.06 0.07 0.06 0.12 0.10 0.11 0.13 0.15 0.17 0.14 0.12 0.11 0.11 0.13 0.12 0.09 0.07 0.06 0.04 0.03 0.03 0.02 0.03 0.02 0.03 0.02 0.06 0.08 0.08 0.05 0.06 0.05 0.06 0.10 0.12 0.13 0.14 0.15 0.15 0.16 0.18 0.19 0.20 0.20 0.20 0.20
0.43 0.43 0.43 0.40 0.38 0.32 0.31 0.33 0.35 0.34 0.34 0.31 0.23 0.19 0.12 0.05 0.03 0.06 0.07 0.08 0.06 0.13 0.10 0.16 0.10 0.10 0.10 0.09 0.08 0.11 0.14 0.08 0.13 0.11 0.13 0.11 0.10 0.11 0.13 0.12 0.13 0.07 0.05 0.07 0.07 0.08 0.09 0.12 0.11 0.11 0.14 0.15 0.13 0.07 0.07 0.07 0.10 0.08 0.06 0.06 0.04 0.03 0.03 0.02 0.03 0.04 0.03 0.04 0.06 0.06 0.09 0.05 0.05 0.06 0.08 0.08 0.11 0.13 0.14 0.16 0.17 0.17 0.17 0.18 0.19 0.20 0.20 0.19
0.44 0.42 0.37 0.40 0.39 0.36 0.33 0.34 0.37 0.36 0.29 0.26 0.19 0.14 0.08 0.04 0.04 0.13 0.07 0.08 0.07 0.16 0.15 0.11 0.11 0.11 0.09 0.07 0.09 0.11 0.08 0.12 0.11 0.10 0.11 0.09 0.10 0.08 0.10 0.13 0.13 0.10 0.10 0.08 0.05 0.07 0.04 0.04 0.07 0.09 0.07 0.15 0.13 0.12 0.11 0.09 0.11 0.09 0.10 0.08 0.06 0.05 0.03 0.02 0.03 0.02 0.02 0.03 0.04 0.07 0.05 0.03 0.03 0.03 0.09 0.10 0.11 0.13 0.15 0.16 0.17 0.17 0.17 0.18 0.19 0.19 0.19 0.18
0.44 0.40 0.38 0.37 0.35 0.36 0.38 0.38 0.38 0.35 0.26 0.20 0.14 0.10 0.04 0.04 0.07 0.06 0.06 0.08 0.10 0.12 0.11 0.15 0.09 0.07 0.06 0.09 0.11 0.13 0.11 0.08 0.12 0.11 0.10 0.08 0.07 0.09 0.08 0.09 0.12 0.13 0.11 0.06 0.07 0.08 0.06 0.06 0.08 0.13 0.12 0.15 0.12 0.14 0.15 0.12 0.12 0.11 0.10 0.09 0.06 0.06 0.09 0.04 0.05 0.04 0.04 0.04 0.03 0.04 0.03 0.04 0.04 0.07 0.09 0.11 0.11 0.12 0.13 0.14 0.14 0.14 0.15 0.16 0.16 0.17 0.17 0.18
0.41 0.32 0.32 0.26 0.28 0.34 0.39 0.41 0.38 0.31 0.23 0.16 0.10 0.06 0.05 0.06 0.05 0.09 0.08 0.16 0.12 0.08 0.10 0.12 0.09 0.06 0.06 0.06 0.10 0.10 0.15 0.09 0.10 0.11 0.10 0.11 0.11 0.09 0.12 0.12 0.11 0.13 0.09 0.06 0.07 0.05 0.07 0.05 0.11 0.11 0.14 0.13 0.13 0.14 0.13 0.14 0.05 0.08 0.08 0.05 0.06 0.11 0.10 0.07 0.07 0.07 0.06 0.05 0.03 0.05 0.04 0.04 0.06 0.06 0.07 0.09 0.09 0.09 0.11 0.11 0.12 0.12 0.14 0.15 0.15 0.15 0.17 0.17
0.31 0.31 0.19 0.23 0.27 0.35 0.38 0.39 0.35 0.27 0.20 0.14 0.07 0.05 0.09 0.10 0.13 0.10 0.13 0.10 0.11 0.13 0.09 0.06 0.05 0.05 0.05 0.05 0.07 0.08 0.10 0.14 0.09 0.09 0.07 0.12 0.08 0.11 0.10 0.12 0.15 0.14 0.15 0.10 0.08 0.12 0.06 0.05 0.10 0.09 0.08 0.14 0.16 0.16 0.15 0.14 0.13 0.10 0.05 0.07 0.11 0.14 0.12 0.08 0.03 0.04 0.04 0.03 0.03 0.04 0.03 0.03 0.04 0.03 0.06 0.06 0.07 0.07 0.09 0.09 0.10 0.12 0.13 0.13 0.14 0.15 0.16 0.17
0.26 0.24 0.21 0.21 0.26 0.34 0.39 0.39 0.34 0.24 0.17 0.11 0.07 0.07 0.13 0.09 0.15 0.14 0.17 0.15 0.14 0.12 0.07 0.06 0.06 0.09 0.05 0.06 0.06 0.08 0.10 0.08 0.08 0.09 0.06 0.10 0.07 0.15 0.11 0.11 0.15 0.15 0.16 0.17 0.09 0.09 0.12 0.05 0.08 0.11 0.10 0.12 0.15 0.15 0.12 0.15 0.15 0.10 0.08 0.12 0.06 0.04 0.03 0.07 0.05 0.02 0.02 0.02 0.03 0.03 0.04 0.04 0.04 0.04 0.05 0.05 0.05 0.06 0.07 0.09 0.10 0.10 0.11 0.12 0.13 0.14 0.16 0.17
0.25 0.20 0.15 0.19 0.29 0.32 0.33 0.33 0.25 0.18 0.10 0.07 0.07 0.06 0.10 0.11 0.16 0.15 0.16 0.16 0.15 0.11 0.06 0.07 0.06 0.08 0.08 0.07 0.08 0.10 0.10 0.06 0.09 0.07 0.06 0.08 0.06 0.13 0.11 0.13 0.11 0.16 0.17 0.15 0.11 0.11 0.13 0.06 0.05 0.11 0.09 0.10 0.12 0.11 0.06 0.09 0.13 0.14 0.13 0.10 0.12 0.08 0.05 0.04 0.05 0.05 0.04 0.03 0.03 0.03 0.04 0.03 0.04 0.05 0.05 0.05 0.06 0.06 0.07 0.08 0.09 0.09 0.10 0.11 0.13 0.14 0.14 0.15
0.21 0.17 0.11 0.21 0.29 0.30 0.28 0.23 0.15 0.12 0.08 0.05 0.07 0.07 0.13 0.10 0.14 0.18 0.19 0.18 0.11 0.10 0.08 0.08 0.10 0.07 0.09 0.09 0.10 0.07 0.11 0.09 0.08 0.08 0.08 0.09 0.08 0.15 0.11 0.17 0.12 0.13 0.16 0.16 0.12 0.15 0.09 0.11 0.05 0.07 0.10 0.10 0.07 0.10 0.08 0.09 0.08 0.09 0.09 0.08 0.09 0.08 0.09 0.08 0.07 0.06 0.05 0.04 0.04 0.04 0.03 0.04 0.05 0.06 0.06 0.06 0.07 0.07 0.08 0.08 0.08 0.09 0.10 0.11 0.12 0.12 0.13 0.14
0.23 0.14 0.12 0.22 0.27 0.30 0.23 0.15 0.10 0.08 0.07 0.11 0.12 0.10 0.13 0.10 0.14 0.16 0.20 0.20 0.15 0.18 0.11 0.09 0.09 0.07 0.08 0.08 0.08 0.11 0.09 0.10 0.09 0.07 0.08 0.09 0.09 0.06 0.15 0.14 0.15 0.11 0.16 0.15 0.13 0.13 0.09 0.10 0.06 0.07 0.07 0.06 0.07 0.11 0.11 0.11 0.12 0.11 0.10 0.08 0.09 0.08 0.06 0.05 0.04 0.07 0.07 0.06 0.04 0.04 0.03 0.05 0.05 0.07 0.07 0.07 0.08 0.08 0.09 0.08 0.08 0.09 0.09 0.10 0.11 0.12 0.13 0.14
0.16 0.09 0.10 0.21 0.25 0.28 0.14 0.08 0.10 0.13 0.10 0.08 0.07 0.12 0.10 0.18 0.13 0.14 0.16 0.18 0.16 0.13 0.17 0.13 0.13 0.11 0.10 0.09 0.09 0.10 0.10 0.09 0.10 0.08 0.09 0.07 0.11 0.10 0.13 0.18 0.16 0.16 0.12 0.09 0.10 0.15 0.12 0.11 0.09 0.06 0.06 0.06 0.08 0.11 0.13 0.14 0.14 0.13 0.12 0.10 0.11 0.10 0.09 0.07 0.04 0.04 0.07 0.08 0.08 0.07 0.06 0.05 0.07 0.08 0.08 0.08 0.08 0.09 0.09 0.10 0.10 0.10 0.10 0.10 0.11 0.12 0.13 0.14
0.14 0.10 0.18 0.20 0.21 0.16 0.11 0.08 0.11 0.10 0.09 0.13 0.18 0.15 0.17 0.14 0.12 0.14 0.13 0.15 0.11 0.15 0.12 0.11 0.11 0.11 0.12 0.10 0.11 0.10 0.11 0.08 0.10 0.08 0.09 0.10 0.10 0.13 0.15 0.16 0.18 0.14 0.15 0.11 0.14 0.13 0.15 0.10 0.08 0.07 0.08 0.08 0.09 0.11 0.13 0.14 0.13 0.12 0.13 0.13 0.12 0.09 0.10 0.08 0.07 0.08 0.07 0.07 0.06 0.06 0.05 0.05 0.06 0.09 0.09 0.09 0.10 0.10 0.11 0.11 0.11 0.11 0.11 0.11 0.11 0.12 0.12 0.13
0.12 0.12 0.13 0.19 0.22 0.17 0.08 0.05 0.06 0.08 0.10 0.13 0.13 0.12 0.16 0.13 0.12 0.11 0.12 0.13 0.11 0.11 0.11 0.11 0.14 0.13 0.10 0.14 0.13 0.09 0.12 0.06 0.10 0.10 0.09 0.12 0.09 0.16 0.16 0.16 0.18 0.13 0.12 0.11 0.09 0.15 0.08 0.09 0.08 0.05 0.04 0.04 0.06 0.08 0.09 0.12 0.12 0.11 0.10 0.11 0.12 0.12 0.12 0.12 0.12 0.11 0.08 0.07 0.07 0.05 0.04 0.05 0.05 0.09 0.11 0.10 0.10 0.10 0.11 0.12 0.12 0.12 0.12 0.12 0.12 0.12 0.12 0.13
0.12 0.13 0.13 0.14 0.17 0.13 0.07 0.08 0.07 0.07 0.09 0.08 0.09 0.08 0.10 0.11 0.16 0.15 0.13 0.12 0.16 0.14 0.13 0.11 0.12 0.14 0.11 0.15 0.12 0.12 0.12 0.09 0.07 0.12 0.11 0.11 0.11 0.16 0.17 0.17 0.19 0.14 0.16 0.16 0.15 0.17 0.10 0.08 0.07 0.04 0.03 0.03 0.03 0.03 0.04 0.05 0.07 0.09 0.10 0.11 0.12 0.11 0.11 0.10 0.08 0.09 0.07 0.07 0.08 0.06 0.05 0.05 0.07 0.09 0.09 0.09 0.10 0.11 0.11 0.12 0.13 0.13 0.13 0.12 0.13 0.13 0.12 0.13
0.09 0.06 0.08 0.10 0.12 0.12 0.12 0.15 0.11 0.08 0.08 0.08 0.07 0.09 0.11 0.09 0.14 0.17 0.16 0.14 0.16 0.15 0.14 0.13 0.15 0.14 0.12 0.12 0.10 0.10 0.09 0.12 0.09 0.09 0.10 0.09 0.11 0.13 0.17 0.18 0.17 0.16 0.18 0.18 0.17 0.15 0.10 0.10 0.09 0.07 0.06 0.05 0.05 0.06 0.08 0.10 0.09 0.07 0.08 0.10 0.10 0.12 0.12 0.12 0.11 0.09 0.07 0.08 0.08 0.07 0.07 0.06 0.07 0.07 0.08 0.08 0.10 0.10 0.10 0.11 0.12 0.12 0.13 0.14 0.15 0.14 0.13 0.14
0.11 0.07 0.07 0.06 0.09 0.10 0.10 0.12 0.10 0.10 0.08 0.11 0.07 0.09 0.08 0.10 0.11 0.14 0.20 0.09 0.15 0.15 0.14 0.14 0.12 0.10 0.10 0.11 0.09 0.10 0.11 0.09 0.11 0.11 0.10 0.10 0.12 0.13 0.17 0.18 0.19 0.19 0.20 0.18 0.18 0.15 0.11 0.08 0.08 0.09 0.08 0.08 0.08 0.08 0.09 0.10 0.08 0.08 0.08 0.08 0.10 0.11 0.11 0.10 0.09 0.07 0.10 0.09 0.07 0.07 0.09 0.08 0.07 0.08 0.08 0.10 0.11 0.11 0.12 0.12 0.13 0.14 0.15 0.15 0.15 0.15 0.16 0.17
0.07 0.11 0.13 0.13 0.08 0.06 0.08 0.08 0.12 0.10 0.12 0.12 0.09 0.12 0.09 0.09 0.10 0.08 0.14 0.15 0.15 0.17 0.11 0.14 0.13 0.12 0.11 0.09 0.10 0.07 0.08 0.08 0.09 0.08 0.11 0.11 0.11 0.13 0.13 0.17 0.16 0.19 0.20 0.18 0.19 0.14 0.10 0.08 0.08 0.09 0.08 0.10 0.10 0.09 0.10 0.10 0.10 0.10 0.09 0.09 0.09 0.10 0.11 0.09 0.09 0.10 0.11 0.09 0.07 0.07 0.09 0.09 0.09 0.09 0.10 0.12 0.12 0.13 0.13 0.14 0.15 0.16 0.17 0.17 0.17 0.17 0.17 0.17
0.16 0.14 0.14 0.16 0.08 0.10 0.11 0.11 0.13 0.11 0.11 0.11 0.10 0.11 0.09 0.09 0.09 0.11 0.11 0.12 0.13 0.11 0.13 0.08 0.09 0.11 0.12 0.13 0.11 0.08 0.09 0.07 0.06 0.09 0.10 0.10 0.10 0.11 0.10 0.12 0.17 0.20 0.19 0.17 0.17 0.16 0.12 0.09 0.10 0.10 0.09 0.10 0.10 0.10 0.11 0.10 0.10 0.09 0.09 0.10 0.10 0.10 0.10 0.11 0.10 0.11 0.11 0.10 0.10 0.10 0.10 0.11 0.11 0.11 0.12 0.14 0.15 0.16 0.16 0.17 0.18 0.17 0.17 0.18 0.19 0.18 0.18 0.19
0.11 0.09 0.09 0.15 0.13 0.12 0.13 0.13 0.12 0.11 0.09 0.12 0.07 0.09 0.10 0.09 0.09 0.11 0.14 0.12 0.09 0.10 0.14 0.09 0.10 0.11 0.13 0.13 0.12 0.09 0.10 0.10 0.09 0.08 0.11 0.11 0.11 0.12 0.11 0.11 0.11 0.17 0.18 0.15 0.16 0.16 0.12 0.09 0.13 0.11 0.09 0.08 0.09 0.10 0.10 0.10 0.10 0.08 0.09 0.10 0.10 0.11 0.11 0.11 0.11 0.12 0.13 0.12 0.12 0.12 0.12 0.11 0.13 0.15 0.15 0.17 0.17 0.18 0.18 0.18 0.18 0.19 0.20 0.20 0.20 0.20 0.20 0.20
0.14 0.16 0.13 0.09 0.09 0.11 0.13 0.12 0.11 0.10 0.09 0.10 0.08 0.10 0.11 0.10 0.10 0.12 0.12 0.15 0.11 0.09 0.11 0.10 0.11 0.12 0.15 0.14 0.13 0.12 0.13 0.13 0.12 0.12 0.13 0.13 0.10 0.13 0.11 0.12 0.15 0.13 0.15 0.15 0.15 0.15 0.13 0.10 0.12 0.11 0.08 0.07 0.09 0.09 0.10 0.11 0.11 0.10 0.09 0.09 0.09 0.09 0.09 0.10 0.10 0.11 0.12 0.11 0.11 0.13 0.12 0.12 0.13 0.16 0.17 0.17 0.18 0.18 0.18 0.18 0.19 0.20 0.21 0.21 0.21 0.21 0.21 0.21
0.16 0.17 0.15 0.10 0.08 0.12 0.10 0.12 0.11 0.10 0.08 0.10 0.10 0.11 0.10 0.10 0.12 0.14 0.10 0.15 0.15 0.15 0.13 0.13 0.13 0.13 0.13 0.13 0.12 0.13 0.16 0.17 0.16 0.17 0.16 0.16 0.17 0.16 0.17 0.16 0.17 0.15 0.14 0.15 0.16 0.14 0.14 0.12 0.10 0.11 0.09 0.08 0.10 0.11 0.11 0.11 0.10 0.08 0.08 0.09 0.09 0.09 0.10 0.11 0.12 0.13 0.13 0.13 0.12 0.11 0.11 0.14 0.15 0.17 0.16 0.17 0.18 0.18 0.19 0.19 0.20 0.21 0.21 0.22 0.22 0.23 0.23 0.23
Wind_Speed
6 6 6 7 6 6 5 5 4 3 2 1 0 1 1 2 3 3 4 5 6 6 7 7 8 8 8 9 10 10 9 8 8 9 9 11 12 12 12 13 13 12 12 11 11 11 11 11 11 11 11 12 12 12 12 13 13 13 13 14 16 15 16 16 16 17 16 16 16 17 17 15 16 17 16 16 16 15 15 16 17 17 17 18 18 17 18 18
5 5 5 5 5 5 5 4 4 3 2 1 1 1 2 3 3 4 5 5 6 6 7 8 8 9 10 10 11 11 10 9 9 10 11 12 13 13 13 14 14 13 12 12 12 12 11 12 13 12 12 12 13 13 13 14 14 14 14 15 16 16 16 17 17 17 17 16 15 16 17 15 17 19 18 18 18 17 16 18 17 16 16 17 17 18 19 19
5 5 5 4 4 4 4 3 3 3 2 2 2 3 3 4 5 5 6 6 7 7 7 8 9 9 10 11 11 11 10 10 10 11 12 13 14 14 14 15 14 14 13 13 14 13 13 13 13 13 12 13 14 14 14 14 15 15 15 16 18 17 18 18 18 18 18 17 15 16 16 15 18 20 19 18 17 18 18 20 20 17 17 18 18 19 20 20
5 5 5 4 4 4 3 3 2 3 3 4 4 5 5 6 7 7 7 8 8 8 9 9 10 10 10 10 11 11 10 10 11 13 14 14 14 15 15 15 15 14 14 14 14 14 13 13 13 13 13 14 15 14 15 16 16 16 16 17 18 17 18 19 19 19 18 17 16 16 16 16 18 18 19 20 19 20 22 22 22 20 19 19 20 21 21 21
5 5 4 4 3 3 2 2 3 3 4 5 6 6 7 7 8 8 9 9 9 9 10 10 10 10 10 11 11 11 10 11 12 12 13 13 14 15 15 15 15 14 14 14 14 14 13 13 13 13 13 14 15 14 16 16 16 17 17 17 17 17 18 19 19 18 18 17 16 17 17 18 19 18 20 20 20 23 24 23 23 22 21 21 21 21 21 21
5 4 3 2 2 2 3 3 3 4 5 6 7 7 8 8 9 9 10 10 10 10 10 10 10 10 10 10 9 9 8 9 11 11 12 13 14 14 14 14 14 14 13 13 13 13 13 13 13 13 13 14 14 15 16 17 16 17 18 18 18 18 19 19 19 18 18 16 17 18 17 18 18 19 20 18 20 23 24 23 23 22 22 21 21 21 22 22
4 3 2 2 2 3 3 4 4 5 6 7 7 8 9 9 10 10 10 10 10 10 10 9 9 9 8 8 7 7 6 8 10 11 12 12 13 14 13 12 12 12 12 11 12 12 12 12 12 12 12 13 14 15 15 16 16 16 18 18 17 18 18 19 18 18 17 15 17 17 17 19 19 19 20 19 21 23 22 22 22 21 21 21 21 22 22 22
3 2 1 2 2 3 4 5 6 7 8 8 8 9 10 10 10 10 10 9 9 8 8 8 7 7 7 6 6 7 7 8 10 10 12 12 12 13 12 11 10 10 10 10 11 11 11 11 11 12 12 13 14 14 15 16 16 15 17 18 17 17 17 17 16 15 15 14 15 14 16 19 18 18 20 21 22 22 22 22 21 21 21 21 22 22 22 22
1 1 2 2 3 5 6 6 7 8 9 9 10 10 10 11 10 9 9 8 7 6 6 6 6 6 6 6 6 7 8 9 9 10 12 12 12 13 10 10 9 9 9 10 10 10 11 11 11 12 12 13 13 13 14 15 16 16 16 17 16 16 16 16 15 15 14 15 16 15 17 19 19 20 21 23 23 22 22 21 22 22 21 22 22 22 22 22
0 2 3 4 5 6 7 8 9 9 10 10 10 10 10 10 9 8 7 6 6 5 5 5 5 5 5 5 5 6 8 9 9 11 12 12 13 12 10 9 9 9 9 10 10 10 11 11 11 12 12 12 12 13 14 14 15 15 15 14 14 15 17 16 15 15 15 18 18 16 19 21 22 22 22 23 23 22 22 21 22 22 21 22 22 22 22 22
2 4 4 5 6 7 9 10 10 10 11 10 10 9 9 8 7 7 6 5 5 5 5 5 4 4 4 5 5 6 8 9 11 12 12 13 12 11 10 10 9 9 9 10 10 10 11 11 11 12 12 13 13 14 14 14 15 15 14 14 15 15 16 17 16 17 18 19 18 16 19 22 22 22 22 23 23 22 21 20 21 21 21 21 21 22 22 22
4 5 6 7 8 9 9 10 11 10 10 9 8 8 7 7 6 6 5 5 5 4 4 4 3 4 5 6 6 7 9 10 11 13 13 13 11 10 10 10 9 9 9 10 10 11 11 11 12 12 13 13 13 14 14 15 15 15 15 15 17 17 17 19 19 19 19 19 19 18 20 22 22 22 22 22 21 21 20 19 20 20 21 21 21 22 22 22
5 6 7 8 9 9 10 10 10 9 9 8 7 6 6 6 6 5 5 5 4 4 4 4 4 5 5 6 7 8 9 10 12 13 12 12 10 9 10 9 9 9 9 9 10 11 11 12 11 11 13 13 14 14 14 15 15 15 16 15 17 18 18 20 19 19 18 19 20 20 21 22 22 21 21 21 21 21 20 19 20 20 21 21 22 22 22 23
6 7 8 9 9 9 9 9 9 8 7 6 6 5 5 6 5 5 5 4 4 4 4 4 5 6 5 5 7 9 11 11 12 13 12 11 10 9 10 9 9 10 10 10 10 11 11 11 11 11 12 13 14 14 14 15 15 15 16 15 16 16 17 19 18 18 17 19 20 20 21 22 22 21 21 21 22 21 20 20 21 21 22 22 23 23 23 24
7 7 8 9 9 9 9 8 7 6 5 5 5 5 5 6 5 5 4 4 4 4 4 4 5 6 5 5 8 11 12 12 13 13 12 11 10 10 10 10 10 10 10 10 10 10 10 10 10 11 13 14 13 13 14 15 15 15 15 16 16 15 17 19 18 18 18 19 20 20 21 22 22 22 23 23 22 22 21 21 22 22 23 23 24 24 24 25
7 7 8 8 9 8 8 7 6 5 4 4 4 5 5 5 5 5 4 4 4 4 5 5 7 6 5 7 10 12 12 12 13 13 12 11 10 11 11 10 10 10 10 10 10 10 11 11 11 12 13 13 13 13 13 14 15 15 14 15 17 16 17 19 18 19 20 20 21 21 21 22 23 23 23 23 23 23 22 22 23 23 23 24 24 25 25 25
7 7 8 8 9 8 7 6 6 5 4 4 4 5 5 5 5 4 4 5 5 5 5 6 7 6 6 9 10 11 12 12 13 13 12 10 10 10 10 10 10 10 9 10 11 11 12 12 12 12 13 13 13 13 13 14 15 16 15 15 17 17 18 19 19 20 21 20 21 21 21 22 24 22 23 24 23 23 22 22 23 23 24 24 25 25 25 26
7 8 8 9 9 8 7 6 6 5 4 4 4 4 5 5 5 5 5 5 5 6 6 8 8 6 7 10 11 11 12 12 12 13 12 10 10 10 10 10 10 10 10 11 12 12 12 12 12 12 13 13 14 13 12 14 15 16 17 17 18 18 18 20 20 21 21 19 20 21 21 22 23 23 23 23 23 23 23 23 24 24 25 25 25 26 26 27
8 8 8 9 8 7 7 6 6 6 5 4 3 4 4 5 5 6 6 5 6 6 7 9 8 6 8 11 12 12 11 11 12 12 12 11 10 10 10 10 10 10 10 11 12 13 12 12 12 12 14 15 15 14 13 13 14 16 16 16 17 19 20 20 20 20 20 19 20 21 21 21 23 23 23 23 23 24 24 24 24 25 26 26 26 27 27 28
8 8 9 9 8 7 7 6 6 6 5 4 4 4 4 5 5 6 7 7 6 6 6 7 8 7 9 11 12 12 10 10 11 13 14 13 11 11 11 11 10 10 11 11 13 13 12 11 13 13 15 16 16 15 14 14 15 15 16 16 17 18 19 20 20 20 19 19 21 21 20 21 22 23 23 23 23 24 24 25 25 26 26 27 27 28 28 29
8 8 9 8 7 7 7 6 6 5 5 4 4 4 5 5 5 5 5 6 6 6 7 7 8 8 9 10 11 12 10 10 12 14 15 14 11 10 12 11 11 11 12 12 12 13 12 12 14 15 15 16 16 15 14 15 16 16 15 16 17 18 19 20 19 20 21 20 21 21 21 22 23 24 24 23 23 24 25 25 26 26 27 27 27 28 28 28
8 8 8 8 8 7 6 6 5 5 5 4 4 4 5 5 4 4 3 5 6 7 8 9 9 9 9 9 10 11 10 11 13 15 16 14 11 10 11 11 10 12 13 13 12 13 13 13 15 16 15 15 15 16 15 15 15 16 16 16 17 18 19 19 19 21 21 20 21 21 22 23 24 24 24 24 24 25 25 25 26 26 26 26 27 27 27 27
7 7 7 8 8 7 6 5 5 5 5 4 4 4 4 4 3 3 4 4 6 8 9 9 9 10 10 10 11 11 10 11 12 15 16 14 11 10 10 11 11 12 13 13 12 12 13 14 16 16 14 14 15 16 16 16 16 16 16 16 18 19 18 19 20 20 21 20 20 21 22 23 23 23 23 23 23 24 24 25 25 25 25 25 25 25 25 25
7 6 7 8 8 7 5 5 5 5 4 4 4 4 4 3 3 3 4 5 6 8 8 8 8 10 10 10 11 10 9 10 11 14 16 14 12 11 11 11 12 12 13 13 12 11 12 15 16 15 14 14 15 16 16 16 17 17 16 15 18 19 18 19 20 20 20 20 19 19 21 21 20 20 22 21 21 23 23 23 24 24 24 24 24 23 23 23
6 6 7 8 8 6 5 5 5 5 4 4 4 4 3 3 3 4 5 6 7 8 8 8 9 10 10 11 11 9 8 10 12 14 15 14 13 12 12 12 12 13 14 13 12 12 13 15 15 15 15 15 14 15 16 15 16 17 16 16 17 18 19 19 20 19 19 19 18 18 19 19 19 19 20 19 19 20 20 20 22 22 22 22 22 22 21 21
5 6 7 8 7 6 5 5 5 4 5 5 4 4 3 4 4 5 6 6 7 9 9 9 9 10 11 12 12 9 9 11 12 14 15 14 14 12 12 14 13 13 13 13 13 13 14 15 14 13 14 15 14 15 15 15 15 16 17 16 16 17 18 18 18 17 17 17 17 17 16 18 19 19 18 17 18 19 19 19 20 20 20 20 20 20 19 20
6 6 7 7 7 6 5 5 5 5 5 5 4 4 4 4 4 5 6 6 7 8 9 9 9 10 10 12 12 9 10 13 13 14 15 14 14 12 12 14 14 14 14 13 13 14 14 15 15 14 14 14 15 15 16 15 14 16 16 16 17 17 17 16 15 15 15 15 16 16 15 16 18 18 17 16 16 17 18 18 18 18 18 18 18 18 18 18
6 6 7 7 7 6 5 5 5 5 5 5 4 4 4 4 4 5 5 6 7 8 8 9 9 10 11 12 13 10 11 14 13 14 16 15 14 13 12 13 13 14 14 12 12 13 13 14 15 14 14 15 15 15 16 14 14 16 15 16 17 15 14 14 13 14 14 14 15 16 14 15 17 17 16 15 15 16 17 17 16 16 16 17 17 18 18 17
6 6 7 7 6 5 4 4 5 5 5 4 4 3 3 3 3 5 5 5 7 7 7 9 9 11 12 12 13 13 13 14 13 15 16 15 15 14 12 13 12 13 14 12 11 12 12 13 14 13 14 15 15 16 14 13 15 16 14 15 15 14 13 13 13 13 14 14 14 15 14 14 16 16 15 14 14 15 16 15 15 14 15 16 16 17 17 17
6 7 8 7 5 5 5 5 4 4 4 4 3 2 2 2 3 5 5 6 7 7 8 9 9 11 13 12 13 15 14 14 15 16 15 14 15 14 13 13 13 12 14 13 11 12 13 14 14 13 14 15 15 15 14 13 15 16 15 15 14 13 13 13 13 13 13 14 14 13 13 13 15 16 14 14 14 14 14 15 15 14 14 15 16 16 16 17
6 7 8 6 5 5 5 4 4 4 3 2 1 1 1 3 4 4 5 6 7 8 8 9 10 11 12 12 13 14 14 15 16 16 15 15 16 16 14 14 13 13 14 14 13 14 14 14 14 14 15 15 14 14 14 14 15 15 14 14 12 13 13 13 14 13 12 14 14 13 14 13 14 16 15 15 15 14 14 15 15 14 14 15 16 16 16 17
6 6 7 6 5 4 4 4 4 3 2 1 0 1 1 4 5 4 6 7 7 8 8 9 10 11 12 12 13 14 14 14 15 14 14 14 14 14 14 13 13 13 14 14 14 14 13 13 15 15 14 14 14 13 14 15 15 14 14 13 12 12 13 13 13 13 12 13 13 13 15 14 14 16 16 15 15 15 14 15 14 14 15 16 16 16 17 17
5 6 6 5 4 4 4 3 2 2 1 0 1 2 3 4 5 5 6 7 7 8 8 9 11 11 11 12 13 14 13 14 15 14 13 13 13 13 13 13 13 13 13 13 13 14 13 14 15 14 14 14 13 12 14 14 14 14 13 12 11 11 12 12 13 13 13 14 14 15 15 15 16 17 16 15 15 15 15 15 15 15 16 17 17 18 18 19
5 5 4 4 4 4 3 2 1 1 0 1 1 4 4 4 4 5 6 6 7 8 8 9 11 11 11 12 13 14 13 13 14 14 14 13 13 14 14 14 14 13 12 13 13 12 12 13 14 13 13 14 13 12 12 12 13 14 12 11 11 10 10 12 12 12 14 15 16 16 14 13 15 16 16 16 16 16 15 15 16 17 18 18 19 19 20 20
3 4 4 4 4 3 3 1 1 0 1 1 3 4 4 4 4 4 6 7 7 9 9 9 10 11 12 13 13 13 12 13 13 13 13 13 13 13 14 14 15 13 12 12 12 12 11 12 13 13 13 13 13 12 12 12 12 13 12 12 12 11 10 12 11 11 13 15 16 14 13 14 16 17 17 16 17 17 16 17 17 18 19 19 20 21 21 21
2 3 4 4 4 3 3 1 1 0 1 1 4 4 3 3 4 4 5 7 7 8 9 10 10 11 12 13 13 13 12 12 13 13 13 13 12 13 13 13 14 13 12 12 12 12 12 12 13 13 13 12 12 12 12 12 12 12 12 13 13 11 10 12 13 13 13 14 15 14 15 18 19 18 17 16 17 18 17 18 19 19 20 20 21 22 22 23
2 3 3 4 4 4 3 1 0 1 1 3 4 3 3 3 4 4 5 6 7 8 9 9 10 11 12 12 13 13 13 12 13 13 13 13 13 13 13 13 13 13 12 12 12 12 11 12 13 12 12 12 12 12 12 12 12 12 12 12 13 12 12 12 13 15 14 14 15 15 17 19 18 17 17 17 18 19 19 19 20 21 21 22 23 24 24 24
1 1 2 4 5 4 2 1 1 1 2 4 4 3 3 4 5 5 5 6 7 8 9 9 10 11 11 11 12 13 13 13 13 13 13 13 13 12 13 13 12 13 13 12 12 12 11 12 13 11 11 13 13 12 12 13 12 11 11 12 12 12 12 13 13 14 14 15 16 16 17 18 17 16 18 17 17 19 20 20 20 21 22 23 25 26 26 26
1 1 2 4 5 3 2 1 1 2 3 3 3 3 4 4 5 5 6 7 7 8 9 9 10 11 10 10 11 12 13 12 13 13 12 13 13 12 12 12 12 13 13 12 11 12 11 11 11 11 11 12 13 11 11 12 13 12 12 13 13 11 11 13 13 13 13 14 16 17 17 17 17 17 17 17 17 18 19 20 20 22 24 25 26 27 28 28
1 0 1 4 3 3 3 2 3 3 3 3 2 3 4 4 5 6 7 7 8 9 9 9 10 10 10 10 11 12 12 11 11 12 12 12 12 12 12 12 12 12 13 12 12 12 12 10 10 12 12 11 11 10 10 10 11 12 12 13 14 13 13 14 14 13 13 13 14 16 17 19 19 17 17 18 18 18 19 20 21 23 25 26 27 28 29 30
1 1 1 3 2 1 2 4 4 4 3 3 3 3 4 4 5 7 8 8 8 9 9 9 9 10 10 11 11 11 11 11 11 12 11 12 12 12 11 11 11 12 12 12 12 12 11 10 10 12 12 11 11 11 10 10 10 11 12 12 13 13 13 14 15 15 13 14 14 14 18 22 20 17 18 19 19 20 21 22 23 25 27 28 28 29 31 32
2 2 1 3 3 2 3 4 3 3 3 3 4 4 5 5 6 7 8 8 9 9 10 10 10 10 10 10 10 10 11 11 11 11 11 11 10 11 11 11 11 11 12 11 12 11 11 11 11 12 12 12 12 12 11 11 11 11 13 13 13 14 13 13 14 16 15 15 16 15 17 22 21 19 20 21 21 23 24 24 26 28 28 29 30 31 32 33
3 2 1 2 3 3 4 4 3 4 4 3 4 5 6 6 6 7 8 9 9 10 11 10 10 11 11 10 10 11 11 10 10 11 11 11 11 11 10 10 10 11 12 12 12 12 12 12 12 14 14 14 14 13 12 12 12 13 14 14 14 15 15 14 15 16 17 16 16 16 19 23 23 22 22 23 25 27 27 27 28 30 31 31 32 33 34 34
4 3 2 3 2 3 4 3 3 3 3 4 5 6 7 7 7 8 8 9 9 10 10 10 11 11 11 11 11 11 11 11 11 11 11 11 11 11 10 10 10 11 11 12 12 12 12 12 13 14 16 15 15 14 14 15 15 15 16 16 16 16 16 17 18 18 19 18 16 16 20 24 24 24 25 27 28 30 30 30 31 32 33 33 34 34 35 35
4 3 3 4 4 4 4 4 4 3 3 4 5 6 7 7 8 8 8 9 10 10 10 11 11 11 11 11 12 11 12 12 11 12 12 12 12 12 11 10 11 11 12 12 12 12 12 13 13 13 13 14 14 15 16 17 17 17 18 18 18 17 16 18 19 18 20 20 17 18 24 28 27 27 29 30 30 31 32 33 33 33 34 34 35 36 36 36
3 3 2 4 5 6 5 4 5 5 3 4 6 6 6 7 8 8 8 9 10 10 11 11 11 11 11 11 11 12 12 12 12 12 12 12 13 13 12 11 12 12 12 12 13 13 14 14 14 13 13 14 16 17 17 18 19 20 20 20 20 19 19 19 19 20 21 21 22 26 30 33 34 32 31 32 32 32 33 33 34 34 35 35 36 36 36 36
3 3 3 3 4 5 6 5 5 5 4 4 5 6 6 7 8 9 9 9 10 10 11 12 11 11 11 11 11 12 12 13 13 13 13 13 13 14 13 13 13 13 12 13 14 14 14 16 16 15 16 18 19 20 20 20 21 23 23 22 21 20 20 20 22 24 23 22 28 31 28 31 36 35 33 33 33 33 33 34 35 35 36 37 37 38 38 38
3 4 3 3 3 4 4 4 4 5 5 5 6 6 6 7 8 8 9 10 11 11 11 12 12 11 11 11 11 12 13 14 13 13 14 14 14 16 15 14 14 13 13 14 15 15 15 17 17 16 18 20 21 22 22 22 23 24 25 25 24 22 21 23 26 26 23 26 33 34 30 32 37 37 35 34 34 34 35 36 36 36 37 38 39 39 39 39
5 5 3 4 4 4 4 3 4 5 6 6 6 6 6 6 7 8 9 10 11 12 11 12 12 12 11 11 12 12 13 14 14 14 14 14 15 15 16 15 15 15 14 15 16 16 16 18 18 18 20 22 22 23 23 23 24 25 26 26 26 25 25 26 29 28 27 32 36 37 37 38 37 36 37 37 36 36 37 37 36 37 38 39 39 39 39 39
6 5 4 4 5 4 4 4 4 5 5 6 6 6 6 6 6 8 10 10 11 12 11 12 12 12 12 12 12 13 13 12 14 15 14 14 15 15 15 16 15 16 16 16 17 17 18 19 19 19 22 23 22 23 23 22 24 27 29 29 27 27 26 26 28 28 28 33 35 35 37 38 36 35 36 36 36 36 35 36 36 37 38 39 39 39 40 40
5 5 5 6 4 3 3 3 4 4 5 5 5 6 6 6 6 8 9 10 10 11 11 11 11 12 13 13 12 14 14 13 14 15 14 14 16 16 16 17 16 16 17 17 17 18 18 20 21 21 23 24 23 23 25 25 27 29 31 30 25 23 23 24 25 25 26 30 32 32 33 35 35 33 33 33 33 33 34 35 37 38 38 38 39 39 40 40
6 5 5 5 4 2 2 3 4 4 4 5 5 6 7 7 7 8 10 10 11 11 11 11 11 13 14 14 14 15 16 15 15 17 16 16 17 17 17 17 16 16 17 17 18 19 18 20 21 21 22 24 24 24 26 28 28 28 26 24 23 22 23 25 26 26 25 26 28 30 31 33 33 32 33 34 33 33 35 36 37 38 39 38 39 39 40 41
Wind_Direction
113 106 101 102 106 110 115 119 122 122 121 135 212 256 277 284 286 287 282 278 274 273 273 273 275 276 277 278 280 285 282 276 283 294 291 287 288 287 287 287 288 288 286 287 287 282 277 278 277 275 270 269 272 269 268 269 266 267 267 267 269 269 269 269 269 270 273 276 276 280 281 272 273 277 272 274 278 276 276 279 277 277 275 270 265 256 253 256
118 114 108 102 98 98 100 102 101 94 84 58 339 304 299 297 296 293 289 285 280 278 276 276 276 276 277 278 279 282 277 273 281 291 291 289 291 291 290 289 287 285 284 284 285 282 276 274 274 273 270 268 271 270 269 269 267 267 268 270 271 270 270 270 269 271 275 276 275 281 281 277 276 275 273 273 276 278 279 281 278 276 275 269 264 259 259 259
120 114 109 104 97 91 86 80 68 51 30 7 344 322 309 303 300 297 294 291 287 285 284 283 282 281 281 280 282 283 276 275 284 291 290 290 291 291 291 289 285 281 281 282 280 279 274 271 270 269 269 267 269 270 269 269 269 268 269 272 273 271 272 274 273 272 275 273 274 280 280 283 282 277 274 270 275 281 279 279 278 274 271 269 267 265 265 265
115 109 104 100 93 85 75 61 40 15 357 343 332 323 315 309 305 301 297 294 291 290 288 288 288 287 286 284 285 282 278 283 288 290 290 291 293 292 292 289 284 280 280 281 279 277 275 272 271 270 269 269 272 271 269 270 270 269 270 272 274 273 275 278 276 273 275 274 273 277 280 283 283 281 278 272 274 281 280 279 277 273 271 271 272 271 269 268
111 106 101 94 83 69 49 27 5 352 344 335 327 321 317 313 309 304 300 296 294 292 291 291 290 291 289 288 287 281 282 288 288 290 293 294 296 294 293 289 283 280 281 281 280 278 276 274 275 275 272 272 274 273 272 272 271 271 273 274 273 272 274 279 279 276 274 273 275 280 281 279 278 284 285 280 277 277 278 278 277 276 276 274 273 272 271 271
111 106 96 80 53 30 9 355 344 338 333 328 323 318 316 313 310 307 303 298 295 294 293 292 292 292 291 291 290 285 284 287 289 294 298 298 300 299 295 291 285 282 282 281 280 278 276 277 277 274 274 275 273 272 274 275 274 273 277 280 277 275 277 281 282 279 275 275 280 280 278 277 277 283 287 286 281 278 279 278 277 279 278 275 274 273 272 272
111 102 84 49 21 3 351 343 334 331 328 325 323 319 317 314 312 309 305 301 296 294 294 294 295 295 294 293 295 301 299 294 296 300 303 303 303 302 297 290 288 286 283 282 281 277 277 280 276 272 276 278 274 273 276 279 278 275 277 281 281 281 282 283 281 280 279 280 281 279 280 283 280 279 284 288 284 281 281 279 278 278 277 276 275 274 273 272
113 91 48 8 353 344 340 335 330 329 328 326 324 321 319 316 314 311 309 304 298 296 296 296 297 299 299 293 295 309 313 304 303 307 309 308 307 307 299 291 291 288 284 283 281 276 278 282 276 275 279 278 274 276 280 282 282 278 278 281 282 284 285 284 282 281 283 281 279 283 286 286 282 279 283 287 284 283 281 279 278 278 278 277 276 275 273 271
115 28 347 337 332 330 330 328 325 325 324 324 321 320 319 318 318 315 314 310 305 304 302 303 302 303 303 298 300 310 312 306 306 312 314 313 312 310 300 293 294 290 286 287 286 281 280 281 279 279 280 279 278 281 284 282 281 279 281 285 283 283 285 285 286 284 282 280 280 287 287 283 282 282 285 286 283 282 280 279 278 277 277 276 275 274 273 271
333 330 329 325 324 322 322 321 319 319 319 319 317 319 320 321 323 321 321 317 315 315 312 312 308 309 308 307 315 313 310 311 313 315 314 315 314 309 302 297 295 292 290 291 291 290 285 281 281 283 282 284 283 284 286 283 282 282 282 288 288 285 286 286 285 283 283 283 283 282 282 285 285 281 282 283 282 281 279 279 278 276 276 276 274 274 273 272
317 321 320 318 318 315 315 315 315 316 317 317 317 320 323 326 328 326 326 322 319 318 316 317 318 328 328 328 335 320 315 317 317 317 315 316 314 306 305 301 295 295 293 294 292 291 288 283 284 287 286 285 285 287 287 285 285 284 280 285 291 290 289 290 284 282 286 284 282 278 278 287 290 284 281 282 282 281 279 279 279 277 277 275 274 273 273 272
312 314 314 314 315 313 313 314 315 317 317 319 320 323 329 331 332 332 330 325 319 315 312 311 313 320 328 341 341 322 318 320 319 319 316 316 313 306 307 300 294 295 294 295 293 289 289 287 288 290 287 284 286 287 286 287 288 285 283 282 288 291 290 293 287 283 287 280 279 282 281 287 290 286 283 283 282 281 280 280 279 278 277 275 274 274 274 273
310 313 314 314 315 315 315 317 319 321 321 322 322 328 334 335 338 338 334 330 322 314 308 305 305 310 319 329 329 323 322 322 321 320 318 318 313 308 310 303 297 300 299 297 295 294 293 291 291 290 290 288 287 287 287 291 289 286 289 286 287 291 291 295 289 286 289 283 284 287 283 285 288 286 283 282 283 281 282 282 279 278 277 276 275 275 275 274
313 315 316 317 319 319 320 323 325 327 326 326 329 337 343 342 345 343 341 339 330 322 315 313 313 318 323 314 319 329 326 323 326 326 324 322 317 312 312 310 306 306 305 303 300 301 298 296 298 296 295 296 290 288 292 295 292 288 290 290 290 289 288 294 295 292 291 287 291 289 283 284 285 284 282 282 283 281 280 281 279 278 277 276 276 275 275 275
315 317 319 321 323 324 326 328 329 329 330 333 339 345 347 346 347 346 345 342 335 327 318 321 322 322 326 314 316 328 329 329 333 331 327 325 322 316 312 312 311 309 310 309 306 307 306 304 309 305 298 300 298 295 295 295 295 294 291 290 292 290 287 293 298 299 293 289 296 292 284 287 285 282 283 284 284 281 279 279 278 277 276 276 276 275 275 275
319 321 322 324 326 326 328 329 329 330 333 339 345 345 344 344 344 349 354 349 340 328 322 324 324 323 322 312 315 326 332 333 332 329 326 326 325 318 312 310 311 312 312 313 310 308 311 311 311 309 305 305 303 298 297 298 297 296 294 290 292 293 292 292 294 302 300 291 296 295 285 287 287 282 284 285 283 281 279 278 278 277 276 276 275 275 275 275
322 322 322 325 327 326 327 328 328 329 328 334 342 342 344 345 340 340 343 347 344 337 339 334 325 326 325 319 319 325 330 329 328 329 326 325 324 321 318 313 311 311 312 317 316 311 312 311 304 305 310 307 300 297 297 299 297 296 298 296 294 294 294 294 292 301 304 294 294 297 289 288 289 284 284 285 283 281 280 278 278 277 276 276 275 275 275 274
321 322 323 325 327 326 326 326 326 322 314 316 327 335 345 352 352 345 331 324 326 330 335 336 332 326 324 328 325 319 322 326 328 331 330 325 324 325 324 319 313 309 312 317 319 317 312 311 307 304 309 308 306 306 300 296 295 296 298 297 298 298 296 296 294 297 302 299 297 298 293 291 290 288 286 285 283 282 280 279 278 277 276 276 276 275 275 275
320 322 324 325 325 324 323 323 322 317 305 297 303 319 333 347 359 2 358 350 343 334 323 327 334 323 314 324 325 317 321 330 334 336 337 330 322 323 325 323 319 315 315 314 316 319 313 311 314 309 308 308 307 306 300 296 296 296 296 296 298 299 297 295 295 297 298 299 299 297 293 290 289 289 288 286 285 283 282 281 279 278 277 277 277 277 276 276
320 324 325 325 323 323 321 319 319 315 306 287 285 307 318 331 342 346 359 9 1 348 335 330 335 331 322 326 330 328 327 335 343 344 342 333 321 322 327 324 325 328 322 311 311 316 315 315 315 309 305 305 305 303 300 302 302 301 301 301 300 299 298 297 296 298 298 297 298 296 293 290 288 289 288 287 286 284 282 281 280 278 278 277 277 277 277 277
320 325 327 327 325 324 321 317 317 314 307 291 282 298 302 312 327 324 345 1 350 348 351 341 337 337 331 330 335 336 330 333 344 347 343 336 327 325 327 327 327 326 318 310 310 314 318 318 313 308 304 302 307 308 305 307 309 307 303 302 303 299 299 298 297 301 302 299 298 296 295 293 291 291 289 288 286 284 281 279 279 278 278 279 278 277 277 278
319 325 330 331 328 326 320 316 319 313 310 303 289 296 298 302 313 313 334 345 337 344 349 345 345 343 335 332 336 339 341 340 340 343 342 340 340 332 327 332 329 319 316 315 314 316 321 318 312 309 305 305 312 313 311 311 311 310 305 303 304 301 301 300 299 304 305 301 297 296 297 295 294 294 291 288 287 286 283 280 281 279 278 278 278 278 278 277
316 323 331 332 329 326 321 316 318 319 317 307 296 302 302 300 305 319 341 337 331 337 343 345 349 346 340 338 337 341 352 348 335 336 340 340 341 336 331 331 327 321 322 322 317 315 316 314 312 313 310 308 313 315 314 312 311 309 309 307 305 305 307 303 302 305 306 304 299 297 300 299 298 298 295 290 288 290 288 284 284 282 280 279 279 279 277 276
313 320 328 331 329 326 321 317 318 322 318 308 307 302 289 294 300 319 336 331 329 333 336 339 343 345 342 339 338 338 345 346 337 334 337 339 334 331 330 326 325 324 321 321 324 322 315 311 312 318 317 310 311 317 318 314 313 310 308 309 307 307 306 302 303 306 307 309 305 304 307 304 301 301 298 296 293 292 292 288 286 284 283 282 282 281 278 277
312 318 325 329 329 323 317 318 317 318 317 314 313 298 281 288 297 312 325 325 328 331 333 334 338 342 340 339 339 334 335 341 340 334 335 339 332 326 326 323 323 321 314 317 327 326 318 315 315 318 319 317 317 319 317 314 315 312 308 308 309 308 306 305 308 310 311 312 308 310 312 308 307 304 300 301 300 297 295 292 287 285 284 283 281 280 279 279
311 316 323 327 326 320 315 316 314 314 319 316 306 296 284 285 299 314 319 323 324 326 331 333 335 339 339 340 336 331 334 333 333 336 338 337 331 325 325 323 323 321 312 315 322 320 318 319 320 319 321 323 322 318 316 317 319 316 312 313 314 312 310 309 311 313 313 311 312 316 314 308 311 311 305 305 304 300 299 295 290 288 286 282 280 281 282 282
310 316 322 325 324 320 312 310 311 312 316 311 300 293 284 287 306 315 318 327 324 322 330 331 333 340 340 341 341 338 332 325 328 339 341 335 330 330 329 324 323 321 316 319 321 317 317 321 324 324 324 325 323 319 318 320 321 317 316 318 316 314 313 312 314 315 313 313 317 320 318 313 313 314 315 313 308 305 303 299 295 291 286 283 282 283 284 284
310 316 323 323 322 321 313 309 312 313 312 307 301 291 281 290 306 317 331 334 323 323 331 331 334 341 339 343 351 350 332 328 331 334 335 336 334 335 333 325 322 321 320 322 318 314 318 323 323 325 326 325 321 317 317 321 320 317 318 320 317 315 315 316 321 320 318 320 320 319 322 320 314 316 322 322 315 311 306 301 298 292 287 285 284 285 286 286
310 319 326 322 315 318 317 314 314 312 310 307 304 289 278 294 311 328 340 326 322 328 330 332 335 336 337 342 349 347 337 336 335 330 334 339 337 337 332 323 324 328 330 329 320 315 320 321 319 324 327 324 319 316 318 322 321 319 323 324 323 323 322 324 325 323 323 323 317 317 324 323 317 318 324 325 318 312 309 308 304 296 290 287 287 287 287 288
312 323 329 324 311 311 312 314 315 310 309 306 301 292 285 316 333 343 334 317 323 328 327 336 335 333 340 342 339 340 340 337 335 335 340 341 340 341 335 327 330 334 334 336 329 320 321 322 320 324 326 321 318 318 320 320 320 326 332 329 326 326 326 327 326 326 329 322 314 316 323 324 321 319 320 320 317 313 313 315 312 305 297 293 291 291 290 290
315 325 330 327 315 308 306 308 311 306 308 304 297 328 338 330 342 350 329 318 325 330 332 337 334 336 343 342 336 336 338 336 336 341 341 339 340 341 337 332 332 334 333 333 329 324 326 328 325 323 324 326 326 324 324 323 325 332 335 332 328 325 328 329 328 332 331 319 314 318 323 322 317 317 318 316 313 313 314 314 314 309 302 298 296 295 293 292
318 325 331 331 320 316 311 303 304 306 308 306 105 12 354 334 335 333 324 325 330 332 333 331 332 338 340 339 338 335 335 335 338 342 339 337 339 338 337 335 331 331 330 327 326 325 325 326 327 326 326 332 334 330 329 330 333 337 337 340 338 332 335 332 328 331 324 316 319 323 324 320 310 311 315 313 311 310 309 309 311 309 305 303 301 299 297 295
320 325 332 334 330 328 322 305 305 308 293 138 82 355 1 349 330 324 327 333 335 333 332 332 334 337 337 340 339 334 336 337 337 341 339 338 341 338 336 337 334 331 329 329 329 328 325 324 330 332 329 333 337 335 333 331 335 339 340 343 340 338 340 329 324 330 324 318 320 322 323 319 316 317 316 313 313 310 306 305 307 308 307 305 304 302 301 297
324 335 334 336 343 342 335 323 314 299 181 119 5 349 353 340 325 333 333 331 334 336 336 335 336 338 341 342 337 334 339 338 338 342 340 340 343 339 336 337 339 337 335 335 332 331 330 325 329 334 331 334 338 336 334 332 334 336 337 342 338 336 336 326 322 326 324 322 320 321 323 319 319 322 318 316 318 316 311 307 307 308 306 305 305 303 301 298
323 347 347 344 353 354 354 344 307 240 148 35 3 359 348 325 324 338 333 328 335 338 336 336 341 344 341 338 337 337 339 339 342 345 343 342 341 339 337 336 338 341 340 338 332 332 332 322 323 331 331 334 337 333 336 340 337 333 338 344 338 331 332 331 325 320 325 328 324 321 319 315 317 318 318 320 319 316 313 310 309 306 304 305 304 302 300 298
308 345 356 1 2 1 358 339 311 124 125 26 14 360 336 326 334 337 334 337 341 342 338 337 344 347 340 336 339 341 341 341 344 345 342 341 338 338 339 336 338 343 344 341 336 335 335 326 326 334 333 335 336 332 336 340 336 337 341 340 334 332 336 335 328 327 335 332 326 324 318 318 323 322 322 326 320 315 315 312 308 305 305 306 303 300 299 297
292 330 359 11 7 1 354 337 16 99 45 28 26 356 330 340 348 340 339 343 344 348 350 343 342 345 341 339 340 341 343 343 344 345 342 340 339 340 342 339 340 343 342 343 340 338 338 330 329 335 335 333 335 335 337 339 339 341 339 335 337 339 339 336 332 334 338 330 324 324 318 318 323 323 324 326 319 315 314 312 310 308 307 306 302 300 299 297
279 318 360 5 3 2 1 12 65 80 35 26 22 2 350 353 352 346 346 348 346 352 357 350 344 345 344 344 342 340 343 344 344 346 345 343 343 344 345 344 345 347 346 347 346 344 346 339 332 337 337 334 338 339 336 338 342 343 339 339 342 339 334 336 335 333 333 328 324 324 322 318 317 318 321 320 314 313 313 313 313 310 306 303 301 300 300 299
254 308 351 354 0 12 22 47 70 50 38 29 14 2 2 357 353 352 351 352 352 356 358 350 348 351 350 349 346 342 345 347 346 349 350 349 348 349 351 351 351 353 352 354 352 348 351 348 339 340 341 338 342 343 336 336 342 345 344 342 342 339 332 330 332 329 328 327 325 328 330 323 315 317 318 313 312 313 312 314 312 307 304 303 302 302 301 300
233 246 341 349 6 31 37 55 55 39 37 31 14 8 5 2 0 359 357 356 356 357 356 352 354 356 352 349 348 346 349 352 353 356 355 355 356 355 357 0 360 359 359 2 2 356 358 358 346 344 348 346 344 342 337 337 340 340 340 336 335 336 333 328 326 325 327 327 325 327 328 321 318 319 315 311 314 314 311 312 311 307 306 305 304 304 303 301
175 142 355 358 14 41 46 53 47 41 49 39 26 19 11 11 10 4 2 1 360 359 359 360 1 358 355 353 351 351 355 358 360 2 360 0 3 2 1 6 6 3 4 6 4 360 359 358 347 344 348 345 337 335 336 335 334 335 331 328 328 330 331 330 325 322 323 321 319 323 321 318 321 321 313 312 316 315 313 311 310 308 307 306 307 306 305 304
130 128 35 16 41 81 72 58 38 40 57 41 29 27 19 17 14 7 3 3 2 1 3 4 2 360 358 357 357 360 3 2 2 4 1 359 2 0 360 5 5 4 4 1 355 353 355 355 346 337 338 336 331 334 337 333 332 333 328 325 327 326 326 326 320 318 320 316 316 321 317 316 323 322 315 315 317 317 315 312 310 308 307 307 308 307 306 305
120 128 77 30 63 90 78 59 32 38 48 36 30 29 21 18 14 8 5 4 2 2 4 2 360 360 359 360 4 5 4 2 0 360 358 356 355 354 357 1 0 360 360 355 349 348 350 352 344 334 334 335 332 333 334 332 331 329 324 324 323 319 319 317 312 312 314 310 311 317 312 313 323 324 316 315 316 316 314 311 309 308 308 308 308 307 306 305
112 104 71 49 76 97 83 78 67 54 44 38 35 25 17 17 15 10 6 3 3 4 5 1 359 360 1 4 7 5 2 1 358 356 357 355 352 352 354 354 353 353 351 347 347 346 343 342 342 339 339 339 337 336 332 329 326 321 319 320 320 320 320 316 312 313 312 306 305 308 305 308 318 321 315 314 315 314 312 310 308 308 308 309 308 307 306 306
111 98 73 58 69 87 92 98 95 77 54 47 39 21 15 17 13 9 9 6 5 6 5 2 0 2 2 4 5 3 1 360 356 355 356 353 347 349 349 344 344 345 342 340 342 343 337 334 337 338 335 331 328 327 324 322 321 319 318 316 315 316 314 310 311 311 307 306 304 300 301 307 314 315 313 313 314 313 311 309 309 308 307 307 307 306 306 307
125 115 92 66 68 77 82 85 83 76 64 51 36 19 17 18 9 7 11 8 5 7 7 3 1 2 2 2 1 359 357 357 357 356 354 348 345 347 346 340 338 338 339 338 338 338 336 330 327 324 318 314 313 314 317 320 317 313 312 309 308 309 308 308 309 303 301 306 302 296 298 304 308 309 310 310 310 310 310 309 308 306 305 306 306 306 306 307
122 121 117 96 80 75 72 68 67 64 55 47 34 20 19 17 9 7 8 4 4 6 5 3 1 359 358 358 358 355 353 356 357 354 350 346 343 343 342 340 336 333 335 335 332 335 335 326 321 317 310 309 311 312 315 318 313 308 307 305 304 304 304 301 296 296 301 304 300 300 302 302 304 307 308 308 308 310 310 308 306 305 305 305 305 305 305 306
121 129 126 110 101 91 77 68 69 62 47 37 31 22 20 18 11 9 7 5 5 3 2 0 357 354 353 355 357 354 351 352 351 348 349 346 343 343 342 339 337 332 333 334 330 332 330 321 320 320 314 311 312 312 312 313 309 307 305 303 302 301 299 293 290 294 298 295 296 302 304 301 303 308 308 308 309 310 308 307 307 306 305 305 305 305 305 306
123 123 112 98 103 105 85 73 78 68 45 31 28 21 19 18 9 5 7 8 3 359 360 357 350 349 352 354 357 353 347 348 346 343 345 344 341 342 340 336 336 334 333 332 328 327 326 321 321 322 319 314 312 312 313 312 311 309 306 302 300 299 295 292 292 295 293 291 294 300 301 301 305 308 307 309 310 308 307 307 307 306 305 305 305 305 305 306
131 128 120 102 94 88 75 65 68 57 34 25 23 16 15 17 6 2 5 8 2 358 360 355 348 352 354 352 354 347 339 342 342 338 341 342 338 337 335 333 335 334 332 331 328 325 323 321 322 325 322 317 316 319 318 314 311 310 307 304 301 300 298 296 296 298 297 295 298 301 301 304 307 309 308 309 308 308 308 308 307 307 306 306 306 306 306 306
133 131 129 114 92 68 63 51 44 43 28 18 18 13 8 3 0 3 2 359 359 359 357 354 353 357 356 351 346 337 333 336 335 331 334 335 332 332 332 331 333 333 330 328 327 325 322 320 323 327 323 318 320 324 320 316 313 310 308 307 305 304 303 302 303 304 301 299 302 305 304 306 311 314 313 310 309 309 309 308 308 308 308 307 307 307 307 307
129 126 125 111 86 57 59 42 29 31 20 9 14 12 1 353 355 3 1 354 352 354 352 354 358 357 354 348 340 334 335 335 332 330 331 330 328 328 327 327 328 329 328 327 326 325 323 321 323 324 321 318 321 322 321 321 320 315 313 313 312 309 307 308 310 308 304 303 306 306 306 309 315 317 315 313 312 311 309 309 310 309 309 309 308 308 308 307